Regional Weather Roundup
Issued by NWS

Home | Current Version | Previous Version | Text Only | Print | Product List | Glossary On
Versions: 1 2 3 4 5 6 7 8 9 10 11 12 13 14 15 16 17 18 19 20 21 22 23 24 25 26 27 28 29 30 31 32 33 34 35 36 37 38 39 40 41 42 43 44 45 46 47 48 49 50
000
ASUS45 KABQ 301310
RWRNM
NEW MEXICO REGIONAL WEATHER ROUNDUP
NATIONAL WEATHER SERVICE ALBUQUERQUE NM
700 AM MDT SUN AUG 30 2015

NOTE: "FAIR" MEANS FEW OR NO CLOUDS BELOW 12,000 FEET AGL WITH NO
       SIGNIFICANT WEATHER OR OBSTRUCTIONS TO VISION.

      THIS PRODUCT IS RELEASED AS TWO VERSIONS.  ONE VERSION NEAR
      THE TOP OF THE HOUR CONTAINING PRELIMINARY DATA FROM ALBUQUERQUE
      AND OTHER STATIONS.  A FINAL VERSION WITH ADDITIONAL DATA IS
      ISSUED ABOUT 10 MINUTES AFTER THE HOUR.

NMZ501-503-504-510>518-301400-
NORTHWEST PLATEAU/NORTHCENTRAL MOUNTAINS

CITY           SKY/WX    TMP DP  RH WIND       PRES   REMARKS
FARMINGTON     PTCLDY    62  46  55 E7        30.21R
LOS ALAMOS     CLEAR     58  49  70 CALM      30.37R
SANTA FE       CLEAR     53  48  83 NW5       30.29S
TAOS           CLEAR     46  34  61 N6        30.39R
ANGEL FIRE     FOG       38  38  99 CALM      30.47R VSB<1/4

$$
NMZ402-403-502-505>509-301400-
WESTCENTRAL MOUNTAINS/SOUTHWEST MOUNTAINS

CITY           SKY/WX    TMP DP  RH WIND       PRES   REMARKS
GALLUP         CLEAR     53  46  77 CALM      30.29R
GRANTS         CLEAR     49  47  94 CALM      30.33R
SILVER CITY      N/A     57  54  88 NW8       30.24R

$$
NMZ407-409-411-412-301400-
SOUTHERN DESERTS

CITY           SKY/WX    TMP DP  RH WIND       PRES   REMARKS
DEMING         CLEAR     63  55  75 NE6       30.15R
LAS CRUCES     CLEAR     66  54  64 E5        30.17R
HOLLOMAN AFB   CLEAR     63  56  79 NE3       30.15R
ALAMOGORDO     CLEAR     57  55  94 CALM      30.17R
T OR C         CLEAR     67  51  56 NW6       30.18R

$$
NMZ519>523-301400-
CENTRAL VALLEYS/CENTRAL HIGHLANDS

CITY           SKY/WX    TMP DP  RH WIND       PRES   REMARKS
ALBUQUERQUE    PTCLDY    64  50  60 N7        30.24R
DOUBLE EAGLE   PTCLDY    55  46  71 NW3       30.27R
MORIARTY ARPT  FAIR      47  44  89 CALM      30.31S
CLINES CORNERS CLEAR     55  49  80 W5        30.33R
BELEN          FAIR      59  50  71 CALM      30.23R
SOCORRO        FAIR      62  52  69 W6        30.20R

$$
NMZ524>526-539-540-301400-
SOUTHCENTRAL MOUNTAINS

CITY           SKY/WX    TMP DP  RH WIND       PRES   REMARKS
RUIDOSO        CLEAR     55  48  76 MISG      30.35R

$$
NMZ527>531-301400-
NORTHEAST HIGHLANDS/NORTHEAST PLAINS

CITY           SKY/WX    TMP DP  RH WIND       PRES   REMARKS
LAS VEGAS      CLEAR     51  46  83 N6        30.32S
RATON          CLEAR     51  48  89 N6        30.27R
CLAYTON        CLEAR     58  53  84 SW7       30.18S

$$
NMZ532>537-301400-
EASTCENTRAL PLAINS

CITY           SKY/WX    TMP DP  RH WIND       PRES   REMARKS
TUCUMCARI      CLEAR     59  54  83 VRB5      30.15R
CANNON AFB     CLEAR     61  56  82 NW2       30.18R
CLOVIS AIRPORT CLEAR     55  52  88 W5        30.19R

$$
NMZ028-029-538-301400-
SOUTHEAST PLAINS

CITY           SKY/WX    TMP DP  RH WIND       PRES   REMARKS
ROSWELL        CLEAR     60  56  86 SW3       30.16R
ARTESIA        CLEAR     61  61 100 W7        30.17R
CARLSBAD       CLEAR     63  51  65 NW3       30.13
HOBBS          CLEAR     57  57 100 CALM      30.17R


$$



USA.gov is the U.S. government's official web portal to all federal, state and local government web resources and services.